TimeCDT,TemperatureF,Dew PointF,Humidity,Sea Level PressureIn,VisibilityMPH,Wind Direction,Wind SpeedMPH,Gust SpeedMPH,PrecipitationIn,Events,Conditions,WindDirDegrees,DateUTC
12:15 AM,71.1,68.9,93,29.82,10.0,SSW,4.6,-,N/A,,Scattered Clouds,210,2013-07-23 05:15:00
12:35 AM,70.9,69.1,94,29.81,10.0,SW,4.6,-,N/A,,Scattered Clouds,220,2013-07-23 05:35:00
12:55 AM,71.2,69.1,93,29.80,10.0,South,3.5,-,N/A,,Scattered Clouds,190,2013-07-23 05:55:00
1:15 AM,71.2,69.1,93,29.79,10.0,Calm,Calm,-,N/A,,Scattered Clouds,0,2013-07-23 06:15:00
1:35 AM,71.6,69.4,93,29.79,10.0,West,13.8,20.7,N/A,,Mostly Cloudy,260,2013-07-23 06:35:00
1:55 AM,72.5,68.0,86,29.78,10.0,West,4.6,-,N/A,Rain,Light Rain,280,2013-07-23 06:55:00
2:15 AM,70.7,67.5,89,29.77,10.0,West,4.6,-,N/A,,Scattered Clouds,260,2013-07-23 07:15:00
2:35 AM,71.2,64.9,80,29.76,10.0,Calm,Calm,-,N/A,,Clear,0,2013-07-23 07:35:00
2:55 AM,70.7,66.0,85,29.73,10.0,Calm,Calm,-,N/A,,Clear,0,2013-07-23 07:55:00
3:15 AM,69.8,66.6,89,29.73,10.0,SSE,4.6,-,N/A,,Clear,150,2013-07-23 08:15:00
3:35 AM,68.9,67.1,94,29.74,10.0,Calm,Calm,-,N/A,,Clear,0,2013-07-23 08:35:00
3:55 AM,68.9,66.6,92,29.75,10.0,WSW,5.8,-,N/A,,Scattered Clouds,240,2013-07-23 08:55:00
4:15 AM,68.0,65.5,92,29.75,10.0,SSW,3.5,-,N/A,,Mostly Cloudy,210,2013-07-23 09:15:00
4:35 AM,68.4,64.4,87,29.75,10.0,SSW,3.5,-,N/A,,Scattered Clouds,200,2013-07-23 09:35:00
4:55 AM,68.0,63.5,85,29.76,10.0,WSW,5.8,-,N/A,,Clear,250,2013-07-23 09:55:00
5:15 AM,67.1,63.1,87,29.75,10.0,SW,4.6,-,N/A,,Clear,230,2013-07-23 10:15:00
5:35 AM,66.4,62.2,86,29.76,10.0,West,5.8,-,N/A,,Clear,260,2013-07-23 10:35:00
5:55 AM,66.2,62.4,88,29.76,10.0,WSW,9.2,-,N/A,,Clear,250,2013-07-23 10:55:00
6:15 AM,66.9,62.1,84,29.78,10.0,WSW,9.2,-,N/A,,Clear,250,2013-07-23 11:15:00
6:35 AM,67.6,62.1,82,29.78,10.0,West,9.2,-,N/A,,Scattered Clouds,260,2013-07-23 11:35:00
6:55 AM,69.1,61.9,78,29.79,10.0,West,9.2,-,N/A,,Scattered Clouds,260,2013-07-23 11:55:00
7:15 AM,69.8,61.3,74,29.79,10.0,West,9.2,-,N/A,,Clear,260,2013-07-23 12:15:00
7:35 AM,70.3,62.2,75,29.79,10.0,West,10.4,-,N/A,,Clear,260,2013-07-23 12:35:00
7:55 AM,71.4,62.4,73,29.79,10.0,West,10.4,17.3,N/A,,Scattered Clouds,270,2013-07-23 12:55:00
8:15 AM,71.4,64.2,78,29.79,10.0,WSW,8.1,-,N/A,,Scattered Clouds,240,2013-07-23 13:15:00
8:35 AM,72.7,63.7,73,29.79,10.0,WSW,8.1,-,N/A,,Clear,250,2013-07-23 13:35:00
8:55 AM,73.4,63.1,70,29.78,10.0,West,9.2,-,N/A,,Scattered Clouds,270,2013-07-23 13:55:00
9:15 AM,74.3,63.3,68,29.79,10.0,West,11.5,16.1,N/A,,Scattered Clouds,280,2013-07-23 14:15:00
9:35 AM,74.3,63.1,68,29.80,10.0,West,10.4,-,N/A,,Scattered Clouds,280,2013-07-23 14:35:00
9:55 AM,75.4,62.8,65,29.79,10.0,NW,10.4,-,N/A,,Scattered Clouds,320,2013-07-23 14:55:00
10:15 AM,75.7,63.9,66,29.79,10.0,NNW,9.2,-,N/A,,Clear,330,2013-07-23 15:15:00
10:35 AM,76.1,64.0,66,29.80,10.0,WNW,9.2,-,N/A,,Clear,300,2013-07-23 15:35:00
10:55 AM,76.3,64.4,67,29.81,10.0,NW,11.5,-,N/A,,Clear,320,2013-07-23 15:55:00
11:15 AM,76.6,65.3,68,29.81,10.0,NW,11.5,17.3,N/A,,Scattered Clouds,310,2013-07-23 16:15:00
11:35 AM,75.7,64.8,69,29.82,10.0,NW,10.4,-,N/A,,Scattered Clouds,320,2013-07-23 16:35:00
11:55 AM,76.1,65.8,70,29.82,10.0,NW,10.4,-,N/A,,Mostly Cloudy,310,2013-07-23 16:55:00
12:15 PM,73.9,66.4,77,29.83,10.0,NNW,15.0,-,N/A,,Overcast,330,2013-07-23 17:15:00
12:35 PM,73.0,64.8,75,29.83,10.0,North,13.8,18.4,N/A,,Overcast,360,2013-07-23 17:35:00
12:55 PM,71.4,64.0,77,29.85,10.0,North,15.0,-,N/A,,Overcast,350,2013-07-23 17:55:00
1:15 PM,70.2,62.6,77,29.85,10.0,NNW,11.5,-,N/A,,Overcast,330,2013-07-23 18:15:00
1:35 PM,70.0,62.8,78,29.85,10.0,North,15.0,-,N/A,,Overcast,350,2013-07-23 18:35:00
1:55 PM,68.9,62.2,79,29.85,10.0,North,16.1,-,N/A,,Overcast,350,2013-07-23 18:55:00
2:15 PM,68.7,60.8,76,29.86,10.0,North,17.3,21.9,N/A,,Overcast,360,2013-07-23 19:15:00
2:35 PM,70.2,60.6,72,29.85,10.0,North,13.8,21.9,N/A,,Overcast,350,2013-07-23 19:35:00
3:15 PM,71.1,60.1,68,29.86,10.0,North,18.4,25.3,N/A,,Clear,10,2013-07-23 20:15:00
3:35 PM,70.9,58.6,65,29.85,10.0,North,19.6,26.5,N/A,,Clear,360,2013-07-23 20:35:00
3:55 PM,69.6,58.1,67,29.86,10.0,North,19.6,-,N/A,,Scattered Clouds,10,2013-07-23 20:55:00
4:15 PM,70.3,57.9,65,29.86,10.0,North,20.7,24.2,N/A,,Scattered Clouds,10,2013-07-23 21:15:00
4:35 PM,69.4,57.7,66,29.86,10.0,North,15.0,26.5,N/A,,Clear,360,2013-07-23 21:35:00
4:55 PM,69.6,57.9,66,29.86,10.0,North,18.4,25.3,N/A,,Scattered Clouds,10,2013-07-23 21:55:00
5:15 PM,68.9,56.7,65,29.86,10.0,North,20.7,29.9,N/A,,Scattered Clouds,10,2013-07-23 22:15:00
5:35 PM,68.0,56.1,66,29.86,10.0,North,18.4,24.2,N/A,,Scattered Clouds,360,2013-07-23 22:35:00
5:55 PM,67.6,56.3,67,29.86,10.0,North,20.7,31.1,N/A,,Clear,10,2013-07-23 22:55:00
6:15 PM,67.1,55.6,66,29.87,10.0,North,21.9,28.8,N/A,,Scattered Clouds,360,2013-07-23 23:15:00
6:35 PM,66.2,54.1,65,29.87,10.0,North,18.4,27.6,N/A,,Scattered Clouds,10,2013-07-23 23:35:00
6:55 PM,65.7,54.3,67,29.88,10.0,North,17.3,28.8,N/A,,Clear,10,2013-07-23 23:55:00
7:15 PM,65.1,54.3,68,29.88,10.0,North,20.7,32.2,N/A,,Scattered Clouds,360,2013-07-24 00:15:00
7:35 PM,63.9,54.0,70,29.88,10.0,North,19.6,25.3,N/A,,Clear,360,2013-07-24 00:35:00
7:55 PM,62.6,52.5,70,29.89,10.0,North,18.4,26.5,N/A,,Clear,360,2013-07-24 00:55:00
8:15 PM,61.7,51.8,70,29.89,10.0,North,19.6,24.2,N/A,,Clear,360,2013-07-24 01:15:00
8:35 PM,61.2,51.8,71,29.89,10.0,North,17.3,26.5,N/A,,Clear,10,2013-07-24 01:35:00
8:55 PM,61.0,51.8,72,29.90,10.0,North,15.0,23.0,N/A,,Clear,360,2013-07-24 01:55:00
9:15 PM,61.0,50.5,68,29.91,10.0,North,16.1,21.9,N/A,,Clear,360,2013-07-24 02:15:00
9:35 PM,61.5,50.0,66,29.92,10.0,North,17.3,24.2,N/A,,Clear,10,2013-07-24 02:35:00
9:55 PM,61.3,49.5,65,29.93,10.0,North,15.0,23.0,N/A,,Clear,10,2013-07-24 02:55:00
10:15 PM,61.2,48.7,64,29.94,10.0,North,13.8,19.6,N/A,,Clear,360,2013-07-24 03:15:00
10:35 PM,61.2,49.8,66,29.94,10.0,North,13.8,20.7,N/A,,Clear,10,2013-07-24 03:35:00
10:55 PM,60.8,50.4,68,29.95,10.0,North,15.0,21.9,N/A,,Clear,10,2013-07-24 03:55:00
11:15 PM,60.3,50.2,69,29.96,10.0,North,11.5,17.3,N/A,,Clear,360,2013-07-24 04:15:00
11:35 PM,60.1,50.0,69,29.96,10.0,North,9.2,16.1,N/A,,Clear,10,2013-07-24 04:35:00
11:55 PM,59.2,50.4,73,29.98,10.0,NNE,9.2,-,N/A,,Clear,20,2013-07-24 04:55:00